Total_Precipitation_Accumulation
1.03 1.00 1.02 1.02 0.64 0.46 0.32 0.22 0.16 0.12 0.09 0.09 0.16 0.15 0.10 0.13 0.11 0.09 0.07 0.15 0.49 1.02 2.15 3.04 2.81 2.48 2.03 1.64 1.44 1.32 1.28 1.06 0.86 0.82 0.75 0.71 0.75 0.80 0.84 0.75 0.68 0.67 0.63
1.68 1.53 1.19 1.11 1.47 1.60 1.23 0.88 0.53 0.28 0.16 0.12 0.09 0.10 0.12 0.13 0.13 0.11 0.10 0.19 0.38 0.56 1.22 2.62 2.82 3.17 3.23 2.80 2.40 2.21 1.97 1.44 1.24 1.17 1.05 0.99 0.93 0.87 0.88 0.95 0.89 0.82 0.77
1.36 1.72 1.79 1.35 1.22 1.75 2.16 2.05 1.60 1.19 0.73 0.45 0.24 0.11 0.11 0.12 0.13 0.12 0.12 0.15 0.30 0.40 0.94 2.71 3.53 4.01 4.45 5.16 4.46 3.64 2.77 2.09 1.87 1.65 1.44 1.28 1.28 1.14 1.09 1.14 1.19 0.97 0.91
1.21 1.60 1.57 1.69 1.92 1.81 2.29 2.14 1.49 1.25 1.04 0.96 0.82 0.64 0.45 0.31 0.19 0.16 0.17 0.18 0.27 0.33 1.27 2.88 3.45 5.14 5.14 5.81 6.86 5.40 3.56 2.79 2.06 1.84 1.80 1.69 1.61 1.67 1.77 1.72 1.62 1.54 1.50
1.11 1.20 1.67 2.50 2.72 2.48 1.85 1.86 2.23 1.93 1.23 0.72 0.66 0.74 0.76 0.65 0.44 0.32 0.21 0.22 0.31 0.42 0.73 1.79 3.07 4.47 4.62 4.58 3.62 2.76 2.10 1.66 1.39 1.51 1.54 1.58 1.45 1.34 1.30 1.47 1.81 2.19 2.32
1.44 1.55 1.31 1.48 2.43 2.91 2.91 2.51 1.85 1.96 1.96 1.80 1.36 0.83 0.62 0.49 0.47 0.51 0.42 0.35 0.36 0.45 0.57 1.18 1.31 1.56 1.86 1.73 2.35 2.01 1.47 1.41 1.48 1.60 1.65 1.73 1.78 1.88 1.84 1.75 1.81 1.91 1.77
1.70 1.77 1.78 1.68 1.92 1.86 1.85 2.28 3.00 2.74 2.18 2.08 2.48 1.78 1.20 0.80 0.46 0.34 0.47 0.58 0.51 0.52 0.72 1.20 1.24 1.04 1.07 1.14 1.25 1.59 1.94 1.81 1.89 2.03 2.16 2.25 2.35 2.42 2.37 2.36 2.22 2.02 1.78
1.72 1.97 1.77 1.66 1.71 1.88 1.70 1.38 1.49 2.13 2.41 2.76 2.50 2.13 1.63 1.19 0.99 0.53 0.30 0.37 0.39 0.48 0.49 0.62 0.75 0.81 0.90 0.87 0.96 1.23 1.34 1.52 1.52 1.61 1.94 2.07 1.96 1.79 1.72 1.74 1.79 1.97 2.22
1.81 1.92 2.11 2.14 2.07 1.94 1.88 1.72 1.54 1.70 1.63 1.94 2.49 2.72 2.03 1.27 0.75 0.72 0.73 0.62 0.33 0.37 0.44 0.67 0.85 0.75 0.65 0.47 0.51 0.63 1.03 1.13 1.24 1.56 1.83 2.12 2.13 1.78 1.70 1.74 1.96 2.36 2.78
1.66 1.93 2.07 2.18 2.34 2.45 2.03 1.99 2.05 2.24 2.21 1.58 1.51 1.66 2.00 1.65 1.10 0.64 0.50 0.74 0.71 0.75 0.73 0.77 0.81 0.70 0.63 0.51 0.49 0.49 0.72 0.96 0.97 1.18 1.46 2.01 2.55 2.63 2.79 3.07 3.38 3.74 3.84
2.25 2.34 2.42 2.53 2.39 2.43 2.68 2.38 2.18 2.18 2.74 2.62 2.19 1.66 1.47 1.63 1.72 1.61 0.93 0.71 0.86 0.97 1.13 0.99 0.71 0.56 0.79 1.10 1.35 1.24 1.12 1.17 1.45 1.74 1.99 2.13 2.74 3.44 3.84 4.02 4.67 4.38 4.40
2.01 2.31 2.47 2.39 2.38 2.08 1.96 2.08 2.09 1.90 1.78 2.03 2.26 2.35 2.02 1.65 1.48 1.85 1.68 1.05 0.87 0.78 0.75 0.99 1.45 1.37 1.36 1.45 1.77 2.02 2.47 2.20 2.96 3.13 3.05 3.69 3.57 3.89 3.88 3.99 3.91 2.87 2.78
1.44 1.39 1.68 1.78 1.60 1.62 1.62 1.67 1.47 1.37 1.49 1.48 1.60 1.92 2.16 2.28 2.32 2.12 2.14 1.72 1.35 1.03 0.96 0.73 0.66 0.80 0.77 0.87 1.40 1.60 2.33 2.67 2.87 3.75 3.63 3.60 3.75 3.08 2.56 2.44 2.74 3.22 2.89
2.23 1.79 1.38 1.57 1.67 1.43 1.29 1.26 1.12 0.89 0.91 1.02 1.09 1.23 1.57 1.95 2.44 2.73 2.74 3.06 2.80 1.97 1.43 0.95 0.92 1.05 1.20 1.53 1.69 1.95 1.58 1.81 1.71 1.81 2.56 2.99 2.95 2.23 1.78 1.45 1.68 2.17 2.42
2.36 2.05 1.67 1.31 1.11 1.03 1.21 1.26 1.15 0.99 0.89 0.86 0.96 1.18 1.34 1.27 1.79 2.17 2.57 2.91 3.65 3.29 2.03 1.26 1.21 1.29 1.14 1.17 1.52 1.42 1.19 1.51 1.58 1.71 1.66 1.89 2.51 2.46 1.68 1.59 1.49 1.53 1.80
3.62 3.01 2.40 1.83 1.27 0.90 0.90 0.98 0.95 0.95 1.01 0.92 0.88 0.96 1.11 1.37 1.49 1.62 2.05 2.46 2.76 3.14 2.74 1.48 1.42 1.38 1.55 1.57 1.68 1.53 1.51 1.92 1.50 1.39 1.51 1.45 1.50 1.93 1.66 1.16 1.07 0.95 0.78
4.01 3.92 3.60 3.34 2.57 1.72 1.31 1.20 1.05 1.01 1.13 1.02 0.97 0.97 0.94 1.07 1.51 1.65 1.57 1.93 2.48 2.67 2.61 1.72 1.50 1.48 1.49 1.63 1.60 1.30 1.15 1.06 1.01 1.09 0.92 0.91 0.93 1.04 1.53 1.45 1.01 0.89 0.99
3.59 3.57 3.61 3.38 3.40 3.28 2.77 2.23 1.98 1.59 1.25 1.21 1.12 1.17 1.05 1.03 1.14 1.45 1.85 1.80 1.94 2.43 2.88 2.46 2.00 1.86 1.65 1.25 1.08 0.90 0.62 0.53 0.58 0.75 0.60 0.52 0.57 0.69 0.82 1.18 1.30 0.95 0.77
2.71 3.06 3.17 3.32 3.00 2.71 2.76 2.77 2.72 2.51 2.30 1.96 1.60 1.25 1.10 1.18 1.36 1.49 1.87 2.35 2.19 1.88 1.95 1.91 1.56 1.24 1.05 0.84 0.70 0.74 0.69 0.51 0.39 0.63 0.63 0.48 0.46 0.44 0.54 0.74 1.12 1.36 1.09
2.44 2.44 2.70 3.05 3.06 2.51 2.32 2.15 1.94 1.93 1.99 2.05 2.00 1.91 1.67 1.53 1.27 1.16 1.15 1.14 1.47 1.61 1.28 1.18 1.15 1.20 1.02 0.80 0.83 0.78 0.89 0.87 0.64 0.50 0.56 0.60 0.57 0.49 0.43 0.54 0.74 0.99 1.35
2.50 2.59 2.53 2.38 2.54 2.85 2.63 2.29 2.04 1.94 1.79 1.72 1.70 1.55 1.49 1.51 1.52 1.35 1.34 1.23 1.20 1.52 1.94 1.85 1.36 1.13 1.16 1.13 1.10 0.92 0.90 0.91 0.80 0.59 0.44 0.45 0.57 0.63 0.53 0.47 0.48 0.78 1.09
2.17 2.52 2.59 2.49 2.47 2.66 3.11 2.46 2.03 2.14 2.19 1.91 1.66 1.38 1.19 1.25 1.00 1.07 1.05 1.10 1.32 1.57 1.84 2.17 1.97 1.25 0.91 1.03 1.17 1.28 1.31 1.31 1.32 1.02 0.91 0.72 0.69 0.78 0.60 0.53 0.59 0.52 0.80
2.42 2.63 2.80 2.79 2.82 2.61 3.27 3.22 2.85 2.17 2.00 1.79 1.55 1.38 1.27 1.20 1.26 0.91 1.00 1.09 1.20 1.44 1.57 1.59 1.71 1.22 0.99 1.00 1.53 1.66 1.50 1.42 1.10 0.95 1.25 1.06 0.76 0.72 0.65 0.58 0.74 0.70 0.58
2.65 2.65 2.65 2.71 2.89 2.67 2.95 2.78 2.91 2.62 2.24 1.57 1.32 1.12 1.05 0.94 0.94 1.19 1.27 1.55 1.28 0.98 0.83 0.90 0.98 0.78 0.86 0.91 1.46 1.84 1.87 1.70 1.32 1.02 1.12 1.39 0.77 0.58 0.51 0.53 0.67 0.66 0.66
2.33 2.35 2.11 2.12 2.16 2.09 2.13 2.05 2.25 2.38 2.33 1.51 1.02 0.98 0.91 0.83 0.98 1.19 1.39 1.60 1.31 0.96 0.77 0.90 0.95 0.92 1.07 1.31 1.64 2.28 2.50 2.47 2.05 1.34 1.15 1.39 1.00 0.79 0.59 0.50 0.61 0.83 0.72
2.00 1.87 1.96 1.93 2.06 1.80 2.09 1.86 1.94 2.04 2.07 1.98 1.25 0.85 1.14 0.86 1.06 1.17 1.26 1.28 1.19 0.78 0.66 0.67 0.75 0.82 0.87 0.86 1.21 1.49 1.92 2.77 2.35 2.07 1.32 2.04 1.60 1.56 1.99 0.87 0.67 0.64 0.63